Regional Weather Roundup
Issued by NWS

Home | Current Version | Previous Version | Graphics & Text | Print | Product List | Glossary On
Versions: 1 2 3 4 5 6 7 8 9 10 11 12 13 14 15 16 17 18 19 20 21 22 23 24 25 26 27 28 29 30 31 32 33 34 35 36 37 38 39 40 41 42 43 44 45 46 47 48 49 50
000
ASUS43 KDTX 211210
RWRMI
MICHIGAN HOURLY REGIONAL WEATHER ROUNDUP
NATIONAL WEATHER SERVICE DETROIT/PONTIAC MI
800 AM EDT SUN SEP 21 2014

NOTE: "FAIR" INDICATES FEW OR NO CLOUDS BELOW 12,000 FEET WITH NO
SIGNIFICANT WEATHER AND/OR OBSTRUCTION TO VISIBILITY.

MIZ047>049-052>055-059>063-066>070-074>076-081>083-211300-
SOUTHEAST LOWER MICHIGAN

CITY           SKY/WX    TMP DP  RH WIND       PRES   REMARKS
ADRIAN         CLEAR     64  58  80 NW15G24   29.69R
6HR MIN TEMP:  64; 6HR MAX TEMP:  68; 6HR PCP:  0.01;

ALMA           MOCLDY    59  57  92 W12       29.62R
ANN ARBOR      MOCLDY    64  58  80 W14       29.65R
BAD AXE        CLOUDY    59  59 100 SW5       29.56F
6HR MIN TEMP:  59; 6HR MAX TEMP:  65;

CARO           CLOUDY    61  60  96 SW9       29.57S
DETROIT CITY   CLEAR     66  59  78 W13       29.62R
6HR MIN TEMP:  65; 6HR MAX TEMP:  69; 6HR PCP:  0.26;

DETROIT        PTCLDY    66  60  81 W14       29.64R
6HR MIN TEMP:  64; 6HR MAX TEMP:  68; 6HR PCP: TRACE;

FLINT          MOCLDY    63  59  87 W10       29.62R
6HR MIN TEMP:  60; 6HR MAX TEMP:  67; 6HR PCP:  0.41;

GROSSE ILE     CLOUDY    70  64  83 W5        29.63R
HILLSDALE      MOCLDY    62  60  93 W15G22    29.71R
HOWELL         PTCLDY    59  57  96 W10G16    29.65R
6HR MIN TEMP:  59; 6HR MAX TEMP:  65;


CITY           SKY/WX    TMP DP  RH WIND       PRES   REMARKS
JACKSON        CLOUDY    61  56  83 W18G26    29.68R
6HR MIN TEMP:  61; 6HR MAX TEMP:  68; 6HR PCP:  0.02;

LAMBERTVILLE   CLEAR     64  59  82 SW12G20   29.68R
LANSING        CLOUDY    59  56  89 W12       29.66R
6HR MIN TEMP:  59; 6HR MAX TEMP:  66; 6HR PCP:  0.18;

LAPEER         CLOUDY    61  59  94 W9        29.60R
MASON          CLOUDY    59  56  91 W9G16     29.67R
MONROE         CLOUDY    66  63  88 SW9       29.64R
MT. CLEMENS    PTCLDY    63  62  99 SW12      29.59R
6HR MIN TEMP:  62; 6HR MAX TEMP:  66; 6HR PCP:  0.54;

PONTIAC        MOCLDY    61  57  87 W13       29.62R
6HR MIN TEMP:  61; 6HR MAX TEMP:  65; 6HR PCP:  0.41;

PORT HOPE        N/A     61  59  93 W6        29.53F
6HR MIN TEMP:  61; 6HR MAX TEMP:  65; 6HR PCP:  0.61;

PORT HURON     MOCLDY    63  63 100 SW3       29.59R
TRI CITIES     PTCLDY    62  59  90 SW9       29.59S
6HR MIN TEMP:  61; 6HR MAX TEMP:  67; 6HR PCP:  0.33;

TROY           CLEAR     63  59  86 W12       29.63R
SAGINAW HB     PTCLDY    61  61 100 SW10      29.58S
$$
MIZ043>046-050>051-056>058-064>065-071>073-077>080-211300-
SOUTHWEST LOWER MICHIGAN

CITY           SKY/WX    TMP DP  RH WIND       PRES   REMARKS
BATTLE CREEK   MOCLDY    60  56  86 W14       29.71R
6HR MIN TEMP:  60; 6HR MAX TEMP:  68; 6HR PCP:  0.15;

BENTON HARBOR  PTCLDY    59  51  75 W17G29    29.76R
6HR MIN TEMP:  59; 6HR MAX TEMP:  69; 6HR PCP:  0.03;

BIG RAPIDS     CLOUDY    57  56  99 W10G20    29.62R
6HR MIN TEMP:  56; 6HR MAX TEMP:  63; 6HR PCP:  0.14;

COLDWATER      MOCLDY    62  57  86 W12       29.72R
6HR MIN TEMP:  62; 6HR MAX TEMP:  69;

FREMONT        LGT RAIN  57  55  95 W8        29.64S
HOLLAND        MOCLDY    60  54  80 W17G31    29.70S
6HR MIN TEMP:  60; 6HR MAX TEMP:  64; 6HR PCP:  0.24;

GRAND RAPIDS   CLOUDY    60  56  86 W13       29.68R
6HR MIN TEMP:  60; 6HR MAX TEMP:  66; 6HR PCP:  0.40;

IONIA          CLOUDY    59  56  90 W12G21    29.65R
KALAMAZOO      CLOUDY    61  56  83 W7        29.72R
6HR MIN TEMP:  60; 6HR MAX TEMP:  69; 6HR PCP:  0.31;

LUDINGTON      CLOUDY    57  56  95 W3        29.63S
6HR MIN TEMP:  57; 6HR MAX TEMP:  64; 6HR PCP:  0.23;

MARSHALL       CLOUDY    59  56  89 W13G21    29.69S
MOUNT PLEASANT PTCLDY    58  56  94 W13       29.60R
6HR MIN TEMP:  57; 6HR MAX TEMP:  64; 6HR PCP:  0.75;

MUSKEGON       MOCLDY    60  52  74 W15G29    29.67R
6HR MIN TEMP:  59; 6HR MAX TEMP:  70; 6HR PCP:  0.05;

SOUTH HAVEN    MOCLDY    61  53  75 W16G24    29.74R
$$
MIZ016>042-211300-
NORTHERN LOWER MICHIGAN

CITY           SKY/WX    TMP DP  RH WIND       PRES   REMARKS
ALPENA         TSTM      54  54 100 NW7       29.58R FOG
6HR MIN TEMP:  54; 6HR MAX TEMP:  61; 6HR PCP:  0.23;

BEAVER ISLAND  RAIN      55  54  97 NE9G16    29.64R
6HR MIN TEMP:  55; 6HR MAX TEMP:  57;

BELLAIRE       CLOUDY    56  54  93 CALM      29.60R
6HR MIN TEMP:  56; 6HR MAX TEMP:  60;

CADILLAC       CLOUDY    55  55  99 NW5       29.60R
CHARLEVOIX     LGT RAIN  57  57 100 N9G18     29.62S
6HR MIN TEMP:  57; 6HR MAX TEMP:  59;

FRANKFORT      CLOUDY    58  54  86 N7        29.63R
GAYLORD        CLOUDY    54  52  93 N9        29.59F
6HR MIN TEMP:  54; 6HR MAX TEMP:  59; 6HR PCP:  0.44;

GRAYLING       CLOUDY    56  55  99 CALM      29.60R
HARBOR SPRINGS RAIN      55  54  94 N8        29.61S
HOUGHTON LAKE  CLOUDY    56  54  93 N5        29.59R
6HR MIN TEMP:  55; 6HR MAX TEMP:  60; 6HR PCP:  0.07;

MANISTEE       MOCLDY    57  54  88 NW6       29.62S
OSCODA         RAIN      60  59  97 CALM      29.54F
PELLSTON       LGT RAIN  54  54 100 N7        29.63S FOG
6HR MIN TEMP:  54; 6HR MAX TEMP:  57; 6HR PCP:  0.81;

ROGERS CITY    RAIN      54  54 100 NE10G16   29.62R
TRAVERSE CITY  CLOUDY    58  53  84 NW5       29.60R
6HR MIN TEMP:  57; 6HR MAX TEMP:  62; 6HR PCP:  0.81;

$$
MIZ007>008-015-211300-
EASTERN UPPER MICHIGAN

CITY           SKY/WX    TMP DP  RH WIND       PRES   REMARKS
KINROSS        CLOUDY    52  48  87 NE15      29.66R
6HR MIN TEMP:  52; 6HR MAX TEMP:  54;

MACKINAC ISLAN CLOUDY    53  52  98 NE12      29.63R
6HR MIN TEMP:  53; 6HR MAX TEMP:  56; 6HR PCP:  0.01;

NEWBERRY       CLOUDY    51  47  87 N12G21    29.68R
S. S. MARIE    CLOUDY    50  43  77 NE9G22    29.67R
6HR MIN TEMP:  51; 6HR MAX TEMP:  55;

MUNISING         N/A     53  49  86 N20       29.74R
6HR MIN TEMP:  53; 6HR MAX TEMP:  56; 6HR PCP:  0.08;

$$
MIZ004>006-011>014-085-211300-
CENTRAL UPPER MICHIGAN

CITY           SKY/WX    TMP DP  RH WIND       PRES   REMARKS
MANISTIQUE     LGT RAIN  52  51  98 N10       29.67R
ESCANABA       CLOUDY    52  48  87 N9G18     29.70R
6HR MIN TEMP:  52; 6HR MAX TEMP:  54; 6HR PCP:  0.27;

MENOMINEE      CLOUDY    54  50  87 N15G21    29.71R
6HR MIN TEMP:  54; 6HR MAX TEMP:  55; 6HR PCP:  0.32;

SAWYER-GWINN   DRIZZLE   48  46  93 N16       29.77R
$$
MIZ001>003-009>011-084-211300-
WESTERN UPPER MICHIGAN

CITY           SKY/WX    TMP DP  RH WIND       PRES   REMARKS
IRON MOUNTAIN  CLOUDY    52  48  86 N13       29.76R
6HR MIN TEMP:  52; 6HR MAX TEMP:  56; 6HR PCP:  0.07;

HOUGHTON       LGT RAIN  45  42  89 NE13G21   29.87R FOG
6HR MIN TEMP:  45; 6HR MAX TEMP:  52; 6HR PCP:  0.01;

COPPER HARBOR    N/A     47  43  86 NE23G29   29.86R
6HR MIN TEMP:  46; 6HR MAX TEMP:  49;

IRONWOOD       MOCLDY    46  46 100 NE6       29.89R
6HR MIN TEMP:  46; 6HR MAX TEMP:  54;

$$

ABBREVIATIONS USED IN REMARKS
   TC - TEMPERATURE IN CELSIUS
  WCI - WIND CHILL INDEX
   HX - HEAT INDEX
  VSB - VISIBILITY




USA.gov is the U.S. government's official web portal to all federal, state and local government web resources and services.